Flag for Iran Weather past 2 weeks in Esfahãn, Iran

Now
73 °F

Sunny.


Feels Like: 74 °F
Forecast: 36 / 74 °F
Wind: No wind

Location: Esfahan

Current Time: Oct 25, 2014 at 12:37:27 PM

Latest Report: Oct 25, 2014 at 12:00 PM


Visibility: 10 mi

Pressure: 30.09 "Hg

Humidity: 13%

Dew point: 19 °F

Location of EsfahãnLocation

Historic Weather in Esfahãn — Graph

°F

Esfahãn temperature yesterday

Maximum temperature yesterday: 77 °F (at 2:00 PM)
Minimum temperature yesterday: 36 °F (at 2:00 AM)
Average temperature yesterday: 57 °F

Past Weeks' High & Low Weather Summary

 TemperatureHumidityPressure
High82 °F (Oct 15, 2:30 PM)81% (Oct 18, 6:00 AM)30.30 "Hg (Oct 18, 6:00 AM)
Low36 °F (Oct 23, 6:00 AM)8% (Oct 10, 3:00 PM)29.92 "Hg (Oct 18, 2:00 PM)
Average60 °F34%30.13 "Hg
* Reported Oct 10 10:30 AM — Oct 25 11:00 AM, Esfahãn, Weather by CustomWeather, © 2014

Note: Actual official high and low records may vary slightly from our data, if they occured in-between our weather recording intervals... More about our weather records

Advertising

Esfahãn weather history for previous 24 hours

 ConditionsComfort  
Time TempWeatherWind HumidityBarometerVisibility
11:00 AM
Oct 25
72 °FSunny.5 mph16%30.12 "Hg5 mi
10:30 AM70 °FSunny.12 mph20%30.12 "Hg5 mi
10:00 AM68 °FSunny.12 mph23%30.12 "Hg4 mi
9:30 AM64 °FSunny.16 mph24%30.15 "Hg4 mi
9:00 AM61 °FSunny.14 mph29%30.15 "Hg4 mi
8:30 AM54 °FSunny.7 mph35%30.15 "Hg3 mi
8:00 AM50 °FSunny.5 mph35%30.12 "Hg3 mi
7:30 AM46 °FSunny.7 mph40%30.12 "Hg2 mi
7:00 AM45 °FSunny.7 mph39%30.12 "Hg2 mi
6:30 AM39 °FClear.7 mph48%30.12 "Hg4 mi
6:00 AM39 °FClear.7 mph48%30.12 "Hg10 mi
5:30 AM37 °FClear.5 mph48%30.09 "Hg4 mi
5:00 AM41 °FClear.5 mph42%30.09 "Hg4 mi
4:30 AM41 °FClear.No wind45%30.09 "Hg4 mi
4:00 AM43 °FClear.9 mph39%30.09 "Hg4 mi
3:30 AM43 °FClear.7 mph39%30.09 "Hg4 mi
3:00 AM43 °FClear.9 mph34%30.09 "Hg4 mi
2:30 AM43 °FClear.9 mph31%30.09 "Hg4 mi
2:00 AM46 °FClear.No wind29%30.09 "Hg4 mi
1:30 AM45 °FClear.No wind29%30.09 "Hg4 mi
1:00 AM43 °FClear.5 mph29%30.09 "Hg4 mi
12:30 AM45 °FClear.No wind25%30.09 "Hg4 mi
12:00 AM52 °FClear.No wind22%30.09 "Hg4 mi
11:30 PM
Oct 24
48 °FClear.7 mph29%30.09 "Hg4 mi
11:00 PM48 °FClear.5 mph27%30.09 "Hg3 mi
10:30 PM52 °FClear.7 mph26%30.09 "Hg3 mi
10:00 PM54 °FClear.7 mph22%30.09 "Hg3 mi
9:30 PM54 °FClear.5 mph24%30.09 "Hg3 mi
9:00 PM55 °FClear.No wind19%30.09 "Hg10 mi
8:30 PM59 °FClear.5 mph18%30.09 "Hg10 mi
8:00 PM57 °FClear.5 mph18%30.09 "Hg10 mi
7:30 PM59 °FClear.7 mph18%30.07 "Hg10 mi
7:00 PM61 °FClear.5 mph20%30.07 "Hg10 mi
6:30 PM68 °FClear.5 mph14%30.07 "Hg10 mi
6:00 PM70 °FClear.No wind13%30.07 "Hg10 mi
5:30 PM72 °FSunny.5 mph12%30.07 "Hg10 mi
5:00 PM77 °FSunny.No wind10%30.07 "Hg10 mi
4:30 PM77 °FSunny.No wind9%30.07 "Hg10 mi
4:00 PM77 °FSunny.No wind10%30.07 "Hg10 mi
3:30 PM77 °FSunny.7 mph10%30.07 "Hg10 mi
3:00 PM77 °FSunny.No wind11%30.07 "Hg10 mi
2:30 PM75 °FSunny.No wind13%30.07 "Hg10 mi
2:00 PM77 °FSunny.9 mph11%30.07 "Hg10 mi
1:30 PM75 °FSunny.No wind13%30.07 "Hg10 mi
1:00 PM75 °FSunny.5 mph12%30.07 "Hg10 mi
12:30 PM73 °FSunny.No wind14%30.09 "Hg10 mi
12:00 PM72 °FSunny.No wind15%30.09 "Hg10 mi
Weather by CustomWeather, © 2014

See weather overviewHow to use our weather pages